Date,TemperatureHighF,TemperatureAvgF,TemperatureLowF,DewpointHighF,DewpointAvgF,DewpointLowF,HumidityHigh,HumidityAvg,HumidityLow,PressureMaxIn,PressureMinIn,WindSpeedMaxMPH,WindSpeedAvgMPH,GustSpeedMaxMPH,PrecipitationSumIn
2013-3-1,46.6,38.4,34.7,35.5,32.4,30.3,93,79,63,29.86,29.78,4,1,0,0.04
2013-3-2,43.2,35.2,31.3,33.4,29.6,24.9,98,80,63,29.93,29.80,7,2,0,0.04
2013-3-3,42.6,31.8,21.4,25.5,21.5,18.9,93,67,42,29.97,29.89,11,2,0,0.03
2013-3-4,57.6,36.7,17.1,31.6,24.0,15.9,96,66,27,30.06,29.82,6,1,0,0.01
2013-3-5,49.3,39.5,32.9,48.4,37.4,28.6,99,92,80,29.87,29.45,9,2,0,1.39
2013-3-6,36.7,34.1,30.9,31.6,28.9,26.6,90,81,75,30.12,29.74,8,3,0,0.01
2013-3-7,43.2,36.4,32.9,32.9,29.9,27.9,87,78,62,30.21,30.09,7,2,0,0.02
2013-3-8,59.0,40.7,26.6,31.6,28.3,24.3,93,65,32,30.26,30.12,9,3,0,0.01
2013-3-9,69.3,44.5,25.9,40.3,32.6,25.1,99,69,28,30.17,29.99,5,1,0,0.04
2013-3-10,73.8,55.0,35.4,43.9,36.7,32.8,96,58,25,30.00,29.79,10,3,0,0.04
2013-3-11,62.4,56.1,44.4,55.7,49.3,40.4,97,79,47,29.82,29.56,14,4,0,1.19
2013-3-12,65.8,44.1,30.2,39.7,34.0,29.5,99,72,35,29.96,29.74,8,2,0,0.00
2013-3-13,54.5,38.1,27.1,32.0,25.5,18.8,99,65,33,30.21,29.95,10,3,0,0.03
2013-3-14,56.8,39.4,22.6,31.6,21.6,17.7,87,52,25,30.27,30.07,7,2,0,0.03
2013-3-15,76.1,52.2,26.8,47.4,38.1,26.1,98,64,34,30.11,29.70,11,2,0,0.03
2013-3-16,82.8,66.8,53.6,53.6,48.5,44.1,74,53,36,29.71,29.57,12,4,0,0.04
2013-3-17,78.4,64.1,47.7,56.0,50.0,45.4,92,62,39,29.76,29.62,9,3,0,0.00
2013-3-18,62.8,56.5,50.4,58.2,53.6,48.0,99,90,72,29.70,29.55,12,3,0,1.00
2013-3-19,68.5,50.6,31.6,53.3,34.1,16.7,99,61,18,29.98,29.69,6,2,0,0.02
2013-3-20,63.5,45.6,28.9,34.1,23.6,15.0,81,47,17,29.99,29.71,9,3,0,0.00
2013-3-21,50.9,35.1,20.8,21.4,16.6,12.7,78,49,26,29.87,29.75,9,3,0,0.00
2013-3-22,52.2,36.7,23.0,31.7,23.6,18.4,93,63,31,29.93,29.81,5,1,0,0.01
2013-3-23,59.7,46.1,38.7,47.1,40.3,31.5,98,81,62,29.85,29.59,7,2,0,0.03
2013-3-24,60.8,48.8,40.5,56.3,46.7,35.4,99,93,73,29.62,29.19,13,3,0,0.98
2013-3-25,40.8,36.2,32.7,35.4,29.6,27.8,85,77,64,29.89,29.49,11,5,0,0.03
2013-3-26,43.9,36.3,31.8,32.1,29.2,26.9,89,76,58,30.15,29.89,9,2,0,0.01
2013-3-27,59.9,40.4,24.3,33.8,27.5,23.8,99,67,30,30.20,30.06,9,2,0,0.01
2013-3-28,66.7,42.1,21.9,32.5,26.9,21.6,99,63,22,30.22,30.04,7,2,0,0.01
2013-3-29,47.5,38.1,26.2,45.0,36.0,25.1,99,93,72,30.22,30.08,6,1,0,0.37
2013-3-30,66.9,50.7,42.3,53.8,46.8,42.0,99,88,54,30.09,29.82,6,1,0,0.35
2013-3-31,67.6,55.9,49.5,61.0,54.5,49.2,99,95,76,29.81,29.66,9,2,0,0.55